Overview Statistics Trail Chart Weather Telemetry Raw packets
 

This is the latest recevied weather packets stored in our database for station/object PE1RXF-13. If no packets are shown the sender has not sent any weather packets the latest 10 day(s).

<< 12 13 14 15 16 17 18 >>
Time Temp. Humidity Pressure Rain* Wind** Luminosity Snow
1788323684 11.67° C 99% 1017.8 hPa 0 mm - 0 W/m² -
1788322581 11.67° C 99% 1017.8 hPa 0 mm - 0 W/m² -
1788321478 11.67° C 99% 1017.9 hPa 0 mm - 0 W/m² -
1788320375 11.67° C 99% 1018.1 hPa 0 mm - 0 W/m² -
1788319272 11.67° C 99% 1018.2 hPa 0 mm - 0 W/m² -
1788318169 11.67° C 99% 1018.3 hPa 0 mm - 0 W/m² -
1788317066 11.67° C 99% 1018.3 hPa 0 mm - 0 W/m² -
1788315963 11.67° C 99% 1018.4 hPa 0 mm - 0 W/m² -
1788314860 11.67° C 99% 1018.5 hPa 0 mm - 0 W/m² -
1788313757 11.11° C 99% 1018.4 hPa 0 mm - 0 W/m² -
1788312654 11.11° C 99% 1018.4 hPa 0 mm - 0 W/m² -
1788311551 10.56° C 99% 1018.5 hPa 0 mm - 0 W/m² -
1788310448 10.56° C 99% 1018.5 hPa 0 mm - 0 W/m² -
1788309345 10.56° C 99% 1018.5 hPa 0 mm - 0 W/m² -
1788308242 10.56° C 99% 1018.6 hPa 0 mm - 0 W/m² -
1788307139 10.56° C 99% 1018.5 hPa 0 mm - 0 W/m² -
1788306036 10.56° C 99% 1018.7 hPa 0 mm - 0 W/m² -
1788304933 10.56° C 99% 1018.7 hPa 0 mm - 0 W/m² -
1788303830 11.11° C 99% 1018.7 hPa 0 mm - 0 W/m² -
1788302727 11.11° C 99% 1018.9 hPa 0 mm - 0 W/m² -
1788301624 11.11° C 99% 1019 hPa 0 mm - 0 W/m² -
1788300521 11.67° C 99% 1019.3 hPa 0 mm - 0 W/m² -
1788299418 11.67° C 99% 1019.4 hPa 0 mm - 0 W/m² -
1788298315 12.22° C 99% 1019.4 hPa 0 mm - 0 W/m² -
1788297212 12.22° C 99% 1019.6 hPa 0 mm - 0 W/m² -

* Rain latest hour (hover to see other rain measurements)
** Current wind speed in m/s (hover to see current wind gust speed)